Weather History for Edinburg, TX

Change the Weather History Date:

Tuesday, November 20, 2012

  Actual Average (KMFE) Record (KMFE)
Temperature  
Mean Temperature 71 °F 68 °F  
Max Temperature 84 °F 79 °F 93 °F (1973)
Min Temperature 58 °F 58 °F 33 °F (1906)
Degree Days  
Heating Degree Days 0 2  
Month to date heating degree days 26  
Since 1 July heating degree days 31  
Cooling Degree Days 6 5  
Month to date cooling degree days 143  
Year to date cooling degree days 4325  
Growing Degree Days 21 (Base 50)    
Moisture  
Dew Point 58 °F    
Average Humidity 64    
Maximum Humidity 90    
Minimum Humidity 36    
Precipitation  
Precipitation 0.00 in 0.03 in 0.53 in (1976)
Month to date precipitation 0.63  
Year to date precipitation 20.75  
Sea Level Pressure  
Sea Level Pressure 30.17 in    
Wind  
Wind Speed 2 mph (East)    
Max Wind Speed 15 mph    
Max Gust Speed -    
Visibility 8 miles    
Events      
T = Trace of Precipitation, MM = Missing Value Source: NWS Daily Summary

Daily Weather History Graph

Daily Weather History Graph

Search for Another Location

Airport:

Trip Planner

Search our weather history database for the weather conditions in past years. The results will help you decide how hot, cold, wet, or windy it might be!

Date:

Astronomy

Nov. 20, 2012 Rise Set
Actual Time 6:55 AM CST 5:40 PM CST
Civil Twilight 6:30 AM CST 6:05 PM CST
Nautical Twilight 6:02 AM CST 6:33 PM CST
Astronomical Twilight 5:34 AM CST 7:01 PM CST
Moon 12:50 PM CST (11/20) No Moon Set
Length of Visible Light 11h 34m
Length of Day
10h 45m
First Quarter, 51% of the Moon is Illuminated
Nov 20
First Quarter
Nov 28
Full
Dec 6
Last Quarter
Dec 13
New
Dec 19
First Quarter

Hourly Weather History & Observations

Time (CST) Temp. Heat Index Dew Point Humidity Pressure Visibility Wind Dir Wind Speed Gust Speed Precip Events Conditions
12:15 AM 63.3 °F - 57.4 °F 81% 30.17 in 10.0 mi Calm Calm - N/A   Clear
12:35 AM 63.0 °F - 57.7 °F 83% 30.16 in 7.0 mi Calm Calm - N/A   Clear
12:55 AM 63.7 °F - 58.3 °F 83% 30.16 in 10.0 mi Calm Calm - N/A   Clear
1:15 AM 62.4 °F - 57.2 °F 83% 30.16 in 10.0 mi Calm Calm - N/A   Clear
1:35 AM 61.9 °F - 57.2 °F 85% 30.16 in 10.0 mi Calm Calm - N/A   Clear
2:15 AM 60.6 °F - 56.5 °F 86% 30.15 in 10.0 mi Calm Calm - N/A   Clear
2:35 AM 60.8 °F - 56.7 °F 86% 30.15 in 10.0 mi Calm Calm - N/A   Clear
6:15 AM 58.6 °F - 55.6 °F 90% 30.16 in 10.0 mi North 3.5 mph - N/A   Clear
6:35 AM 59.0 °F - 55.9 °F 90% 30.17 in 10.0 mi Calm Calm - N/A   Clear
6:55 AM 59.0 °F - 55.8 °F 89% 30.18 in 10.0 mi Calm Calm - N/A   Clear
7:15 AM 59.0 °F - 55.9 °F 90% 30.19 in 7.0 mi North 3.5 mph - N/A   Clear
7:35 AM 59.4 °F - 56.5 °F 90% 30.19 in 7.0 mi Calm Calm - N/A   Clear
7:55 AM 60.1 °F - 57.2 °F 90% 30.20 in 7.0 mi Calm Calm - N/A   Clear
8:15 AM 62.2 °F - 59.2 °F 90% 30.20 in 7.0 mi Calm Calm - N/A   Clear
8:35 AM 64.8 °F - 60.3 °F 85% 30.21 in 10.0 mi Calm Calm - N/A   Clear
8:55 AM 67.6 °F - 60.8 °F 79% 30.22 in 10.0 mi Calm Calm - N/A   Clear
9:15 AM 70.2 °F - 61.2 °F 73% 30.22 in 10.0 mi Calm Calm - N/A   Clear
9:35 AM 72.9 °F - 61.0 °F 66% 30.22 in 10.0 mi Calm Calm - N/A   Clear
9:55 AM 74.3 °F - 60.6 °F 62% 30.22 in 10.0 mi Calm Calm - N/A   Clear
10:15 AM 75.6 °F - 60.8 °F 60% 30.22 in 7.0 mi NNE 3.5 mph - N/A   Clear
10:35 AM 76.5 °F - 60.8 °F 58% 30.22 in 7.0 mi ENE 4.6 mph - N/A   Scattered Clouds
10:55 AM 77.2 °F - 60.6 °F 56% 30.22 in 7.0 mi ENE 3.5 mph - N/A   Mostly Cloudy
11:15 AM 77.5 °F - 58.8 °F 52% 30.21 in 7.0 mi NE 4.6 mph - N/A   Overcast
11:35 AM 78.8 °F - 58.8 °F 50% 30.20 in 7.0 mi Calm Calm - N/A   Mostly Cloudy
11:55 AM 79.9 °F - 57.6 °F 46% 30.19 in 7.0 mi SE 3.5 mph - N/A   Scattered Clouds
12:15 PM 79.7 °F - 57.9 °F 47% 30.18 in 10.0 mi Calm Calm - N/A   Clear
12:35 PM 81.1 °F 81.2 °F 57.0 °F 44% 30.17 in 7.0 mi NNE 4.6 mph - N/A   Clear
12:55 PM 81.7 °F 81.2 °F 55.2 °F 40% 30.15 in 7.0 mi East 3.5 mph - N/A   Clear
1:15 PM 82.2 °F 81.8 °F 56.3 °F 41% 30.14 in 7.0 mi SSE 5.8 mph - N/A   Clear
1:35 PM 82.0 °F 81.6 °F 56.3 °F 41% 30.13 in 7.0 mi Calm Calm - N/A   Clear
1:55 PM 83.3 °F 82.5 °F 55.8 °F 39% 30.13 in 7.0 mi East 4.6 mph - N/A   Clear
2:15 PM 82.2 °F 81.6 °F 55.6 °F 40% 30.12 in 10.0 mi Calm Calm - N/A   Clear
2:35 PM 82.4 °F 81.8 °F 55.6 °F 40% 30.12 in 7.0 mi East 3.5 mph - N/A   Scattered Clouds
2:55 PM 84.0 °F 82.7 °F 54.7 °F 36% 30.12 in 7.0 mi SE 4.6 mph - N/A   Mostly Cloudy
3:15 PM 82.8 °F 82.0 °F 55.2 °F 39% 30.11 in 7.0 mi Calm Calm - N/A   Overcast
3:35 PM 82.8 °F 82.0 °F 55.8 °F 39% 30.11 in 7.0 mi SE 3.5 mph - N/A   Overcast
3:55 PM 82.4 °F 81.8 °F 55.6 °F 40% 30.11 in 7.0 mi Calm Calm - N/A   Overcast
4:15 PM 82.4 °F 81.8 °F 56.1 °F 40% 30.11 in 7.0 mi ENE 8.1 mph - N/A   Overcast
4:35 PM 81.9 °F 81.6 °F 56.5 °F 42% 30.12 in 7.0 mi East 4.6 mph - N/A   Overcast
4:55 PM 81.7 °F 81.4 °F 56.5 °F 42% 30.12 in 10.0 mi ENE 4.6 mph - N/A   Overcast
5:15 PM 81.0 °F 81.1 °F 57.6 °F 45% 30.12 in 7.0 mi East 6.9 mph - N/A   Overcast
5:35 PM 79.9 °F - 58.6 °F 48% 30.13 in 7.0 mi East 15.0 mph - N/A   Overcast
5:55 PM 78.8 °F - 59.2 °F 51% 30.13 in 10.0 mi East 11.5 mph - N/A   Overcast
6:15 PM 77.2 °F - 58.8 °F 53% 30.14 in 7.0 mi East 9.2 mph - N/A   Mostly Cloudy
6:35 PM 75.7 °F - 58.6 °F 55% 30.15 in 10.0 mi East 8.1 mph - N/A   Scattered Clouds
6:55 PM 74.8 °F - 59.0 °F 58% 30.16 in 10.0 mi East 9.2 mph - N/A   Clear
7:15 PM 73.8 °F - 59.4 °F 61% 30.17 in 7.0 mi East 9.2 mph - N/A   Clear
7:35 PM 72.9 °F - 59.7 °F 63% 30.18 in 7.0 mi ESE 8.1 mph - N/A   Clear
7:55 PM 72.0 °F - 59.9 °F 66% 30.18 in 7.0 mi East 5.8 mph - N/A   Clear
8:15 PM 70.7 °F - 60.4 °F 70% 30.19 in 7.0 mi East 5.8 mph - N/A   Clear
8:35 PM 70.3 °F - 59.9 °F 69% 30.19 in 10.0 mi East 4.6 mph - N/A   Clear
8:55 PM 70.0 °F - 59.9 °F 70% 30.19 in 7.0 mi East 5.8 mph - N/A   Clear
9:15 PM 69.3 °F - 60.6 °F 74% 30.20 in 7.0 mi East 4.6 mph - N/A   Clear
9:35 PM 67.8 °F - 60.3 °F 77% 30.20 in 10.0 mi Calm Calm - N/A   Clear
9:55 PM 68.5 °F - 61.0 °F 77% 30.20 in 10.0 mi Calm Calm - N/A   Clear
10:15 PM 68.2 °F - 60.8 °F 77% 30.20 in 10.0 mi Calm Calm - N/A   Clear
10:35 PM 68.0 °F - 60.8 °F 78% 30.20 in 7.0 mi Calm Calm - N/A   Clear
10:55 PM 67.1 °F - 60.4 °F 79% 30.20 in 7.0 mi Calm Calm - N/A   Clear
11:15 PM 66.2 °F - 60.4 °F 82% 30.20 in 7.0 mi Calm Calm - N/A   Clear
11:35 PM 66.2 °F - 60.4 °F 82% 30.19 in 7.0 mi Calm Calm - N/A   Clear
11:55 PM 64.9 °F - 59.4 °F 82% 30.19 in 10.0 mi Calm Calm - N/A   Clear